MOS 1A MOMO 
1 17527U 87018A   03021.97974477 -.00000026  00000-0  10000-4 0  5525
2 17527  98.7011  31.5680 0017910 105.3573 254.9563 14.01608407812371
IRS-1A 
1 18960U 88021A   03022.42118806  .00000195  00000-0  17306-3 0  7094
2 18960  98.9896 331.6840 0015492 152.7128 207.4852 13.96232855660438
OKEAN 1 
1 19274U 88056A   03021.90234374  .00003366  00000-0  31538-3 0  9483
2 19274  82.5098 163.8390 0017532  71.7382 288.5738 14.93647631787190
SPOT 2 
1 20436U 90005A   03022.25547369 -.00003697  00000-0 -17183-2 0  2393
2 20436  98.7041  98.6737 0000469  92.8202 299.7090 14.20021764673883
MOS 1B MOMO 
1 20478U 90013A   03021.65044264 -.00000042  00000-0  00000-0 0  8065
2 20478  98.8161  60.6321 0005923 124.9878 235.1841 13.94685797580299
OKEAN 2 
1 20510U 90018A   03021.79379228  .00002754  00000-0  28973-3 0  3083
2 20510  82.5197 135.7633 0014047 318.2956  41.7182 14.89016712696485
OKEAN 3 
1 21397U 91039A   03021.62224136  .00001906  00000-0  22102-3 0  9082
2 21397  82.5190  59.9601 0021621  67.0420 293.3076 14.84787240627505
ERS-1 
1 21574U 91050A   03021.96277927  .00000295  00000-0  11729-3 0  6265
2 21574  98.4458  96.3878 0033758 220.2985 139.5698 14.35256630602626
IRS-1B 
1 21688U 91061A   03022.24179385 -.00000017  00000-0  18737-4 0    66
2 21688  98.9820  94.1230 0019476 106.4530 301.8040 13.96775690475227
TOPEX 
1 22076U 92052A   03021.41309936 -.00000038  00000-0  10000-3 0  5662
2 22076  66.0403 248.5174 0007614 267.4397  92.5824 12.80930796488695
SPOT 3 
1 22823U 93061A   03022.18538293  .00000233  00000-0  13316-3 0  1731
2 22823  98.4445  57.8207 0016245 302.1648  57.7953 14.18293583482682
OKEAN 1-7 
1 23317U 94066A   03021.94552534  .00001389  00000-0  17617-3 0  3107
2 23317  82.5402 354.6175 0023870 138.2990 222.0043 14.80834754446014
IRS-P2 
1 23323U 94068A   03022.22285010  .00000151  00000-0  86194-4 0  4643
2 23323  98.4690  77.4565 0001043  99.4829 260.6453 14.22759798429313
RESURS O1-3 
1 23342U 94074A   03022.51549700  .00001511  00000-0  23018-3 0  8866
2 23342  97.7505  23.0414 0001864 115.3619 244.7757 14.75278868441267
ERS-2 
1 23560U 95021A   03022.38917284  .00000353  00000-0  14714-3 0   567
2 23560  98.5492  98.4464 0000646  53.5267 306.5976 14.32257499405577
SICH-1 
1 23657U 95046A   03021.93197306  .00002101  00000-0  27406-3 0   538
2 23657  82.5309 135.4089 0025796 121.2775 239.0966 14.79888176398145
RADARSAT 
1 23710U 95059A   03022.48447585  .00000295  00000-0  13143-3 0   861
2 23710  98.5744  31.3059 0000956  80.1718 279.9568 14.29992984376715
IRS-1C 
1 23751U 95072A   03022.24146792  .00000113  00000-0  70802-4 0  1025
2 23751  98.6025  93.3873 0000968  56.6083 303.5186 14.21682511366860
IRS-P3 
1 23827U 96017A   03022.18884406  .00000159  00000-0  91402-4 0  1279
2 23827  98.4994  83.8967 0002444  58.6930 301.4526 14.21727261354919
TOMS-EP 
1 23940U 96037A   03021.97948609  .00001597  00000-0  41510-3 0  1876
2 23940  98.2739 286.9591 0030240 359.9193   0.1992 14.50718932350162
ADEOS 
1 24277U 96046A   03021.67016804  .00000237  00000-0  11165-3 0  4056
2 24277  98.3520  70.5349 0001491  21.3573 338.7666 14.28372771335052
ORBVIEW 2 SE
1 24883U 97037A   03021.96768573  .00000769  00000-0  17300-3 0   210
2 24883  98.2197 123.1848 0000867 314.0734  46.0392 14.59158335291328
IRS-1D 
1 24971U 97057A   03022.26537273  .00000295  00000-0  12189-3 0   758
2 24971  98.5376  97.8731 0057492  36.2480 324.2579 14.32830856278029
TRMM 
1 25063U 97074A   03022.15233127  .00026642  00000-0  37211-3 0  9542
2 25063  34.9746 322.7974 0000649 238.4928 121.5636 15.55856437295683
SPOT 4 
1 25260U 98017A   03022.51117562  .00000214  00000-0  12114-3 0    41
2 25260  98.7096  98.5902 0000544 100.4902 259.6337 14.20034157250568
RESURS O1-N4
1 25394U 98043A   03022.23029399  .00000224  00000-0  11673-3 0  4298
2 25394  98.6369 100.6595 0001485 156.8468 203.2778 14.23867871235644
FASAT-B 
1 25395U 98043B   03022.19194447 -.00000043  00000-0  00000+0 0  8732
2 25395  98.6326 100.4472 0003526 173.4938 186.6288 14.23880656235663
TMSAT 
1 25396U 98043C   03022.19348939 -.00000043  00000-0  00000+0 0  8167
2 25396  98.6326  99.8347 0002935 185.1779 174.9386 14.23501335235632
TECHSAT 1B 
1 25397U 98043D   03021.92342065  .00000088  00000-0  58303-4 0  1167
2 25397  98.6275  98.4820 0000569 194.8237 165.2924 14.22953236235567
ROCSAT-1 
1 25616U 99002A   03022.19781158  .00004591  00000-0  43078-3 0   206
2 25616  34.9865 293.0539 0025334 292.2507  67.5510 14.93207797216600
SUNSAT 
1 25636U 99008C   03021.97956670  .00000469  00000-0  12989-3 0  6621
2 25636  96.4512  13.5355 0150644  63.0101 298.6385 14.42926346205834
LANDSAT 7 
1 25682U 99020A   03022.23618357  .00000550  00000-0  13214-3 0  7605
2 25682  98.2239  91.3676 0001626  66.7601 293.3768 14.57107597200614
UOSAT-12 
1 25693U 99021A   03022.52300708  .00000432  00000-0  81735-4 0  6341
2 25693  64.5603  93.5653 0017866 317.3174  42.6540 14.76357064202262
KITSAT-3 
1 25756U 99029A   03021.80761341  .00000465  00000-0  12672-3 0   762
2 25756  98.4266 136.4519 0015141 103.4160 256.8723 14.51867999193744
TUBSAT 
1 25757U 99029B   03022.46688072  .00000306  00000-0  89517-4 0  5835
2 25757  98.4218 135.4491 0015286 110.2959 249.9874 14.50536126193768
OCEANSAT 
1 25758U 99029C   03021.24252955 -.00000043  00000-0  27651-6 0  1005
2 25758  98.2906 119.8300 0001453 127.8230 232.3091 14.50861751193710
QUIKSCAT 
1 25789U 99034A   03022.56350246  .00000151  00000-0  80734-4 0  7210
2 25789  98.6318 209.9962 0000060   1.1825 358.9350 14.26574918187138
OKEAN-O 
1 25860U 99039A   03021.98024950  .00000925  00000-0  15304-3 0  1044
2 25860  97.8690  70.4018 0001685 107.8492 252.2900 14.72568265188871
IKONOS-2 
1 25919U 99051A   03022.22985811  .00000031  00000-0  14776-4 0  7714
2 25919  98.1259 100.7735 0000957  76.3267 283.8042 14.64434083177882
CBERS-1 
1 25940U 99057A   03022.35776098  .00000410  00000-0  15749-3 0  7084
2 25940  98.4276  95.2388 0001054  91.8328 268.2987 14.35476224171643
TERRA 
1 25994U 99068A   03022.25702592  .00000681  00000-0  16117-3 0  6261
2 25994  98.2049  98.8954 0001019  85.8083 274.3242 14.57100168164692
KOMPSAT 
1 26032U 99070A   03022.42832414  .00001589  00000-0  29503-3 0  7626
2 26032  98.0926 284.5185 0005036  34.2606 325.8920 14.66555011164977
TIUNGSAT 1 
1 26548U 00057D   03021.61694540  .00002238  00000-0  30014-3 0  4067
2 26548  64.5579 111.0280 0046978 242.6111 117.0179 14.81172711125239
EO-1 
1 26619U 00075A   03022.23690055  .00000472  00000-0  11477-3 0  5085
2 26619  98.2202  91.6173 0001586  56.3252 303.8091 14.57103524115259
SAC C 
1 26620U 00075B   03021.91249008  .00000889  00000-0  20719-3 0  7419
2 26620  98.2047  98.1249 0002327  12.6361 347.4897 14.57138495115246
EROS-A1 
1 26631U 00079A   03022.40549366  .00027503  00000-0  83583-3 0  4800
2 26631  97.3444  88.5773 0022948  65.4988  68.8681 15.33760612118881
QUICKBIRD 2 
1 26953U 01047A   03022.37945624  .00019863  00000-0  49953-3 0  5259
2 26953  97.1571  97.2090 0002532  57.8021  72.5247 15.39977137 70858
TES 
1 26957U 01049A   03022.52758838  .00002241  00000-0  17901-3 0  7589
2 26957  97.7248 102.6214 0028644 145.8250 214.4823 15.00980212 68571
JASON 
1 26997U 01055A   03021.95490438 -.00000061  00000-0  00000-0 0  2465
2 26997  66.0418 247.0996 0007137 266.9617  93.0582 12.80930249 52554
BADR B 
1 27003U 01056C   03021.91602353  .00000144  00000-0  21472-3 0  2473
2 27003  99.5916 261.3811 0020208 343.5426  16.5062 13.70032290 55764
MAROC-TUBSAT
1 27004U 01056D   03021.93087123  .00000144  00000-0  21472-3 0  2052
2 27004  99.5909 261.3470 0019869 344.1748  15.8774 13.69977717 55754
ENVISAT 
1 27386U 02009A   03022.43930043 -.00000262  00000-0 -81027-4 0  8689
2 27386  98.5487  91.3821 0000856  84.5436 275.5860 14.32242837 46865
SPOT 5 
1 27421U 02021A   03022.42400177  .00000161  00000-0  96089-4 0  9111
2 27421  98.7282  99.3199 0000689  59.8992 300.2247 14.20022929 37389
AQUA 
1 27424U 02022A   03021.93026951  .00001339  00000-0  30695-3 0  2700
2 27424  98.1974 323.9333 0001767 100.7713 259.3682 14.57130759 38250
ALSAT 1 
1 27559U 02054A   03022.52824382  .00000571  00000-0  14657-3 0  1722
2 27559  98.2384 271.3295 0042048 267.1031  92.5354 14.53419625  8029
ADEOS II 
1 27597U 02056A   03021.77577455  .00000422  00000-0  19641-3 0   551
2 27597  98.7282  95.9130 0000161 322.0007  38.1160 14.25776194  5524
ICESAT 
1 27642U 03002A   03021.84791254 -.00002268  00000-0 -21401-3 0   152
2 27642  94.0085 185.5224 0010987 199.4818 160.6010 14.93547263  1314
SARSAT 4 NOA
1 19531U 88089A   03021.92537139  .00000252  00000-0  15456-3 0  4759
2 19531  98.9051 103.3946 0010922 282.1255  77.8693 14.14524452738895
COSPAS 4 NAD
1 20103U 89050A   03021.82466850  .00000097  00000-0  86771-4 0  6304
2 20103  82.9606 131.3064 0036756 178.2578 181.8710 13.74198283679578
GOES 8 
1 23051U 94022A   03021.37144942 -.00000240  00000-0  00000+0 0  5709
2 23051   0.2308 105.6780 0002388 196.5117 236.1092  1.00257460 39521
SARSAT 6 NOA
1 23455U 94089A   03021.93456809  .00000268  00000-0  16790-3 0  4974
2 23455  99.1879  39.7746 0008799 310.5705  49.4699 14.13287545415577
GOES 9 
1 23581U 95025A   03021.36960492  .00000109  00000-0  00000+0 0  4832
2 23581   0.3472 277.6132 0009812 231.6430 329.9582  1.00030644 28088
GOES 10 
1 24786U 97019A   03022.22568604  .00000091  00000-0  00000+0 0  5145
2 24786   0.0721 109.8473 0003244 211.1164 106.5184  1.00282855 21065
